Time,TemperatureF,DewpointF,PressureIn,WindDirection,WindDirectionDegrees,WindSpeedMPH,WindSpeedGustMPH,Humidity,HourlyPrecipIn,Conditions,Clouds,dailyrainin,SoftwareType,DateUTC
2013-04-04 00:00:00,23.0,14.3,30.37,ENE,69,0.0,-999.0,69,0.00,,,0.00,Wunderground v.1.15,2013-04-04 04:00:00,
2013-04-04 00:01:00,22.9,14.6,30.36,ENE,69,0.0,-999.0,70,0.00,,,0.00,Wunderground v.1.15,2013-04-04 04:01:00,
2013-04-04 00:02:00,22.8,14.5,30.36,ENE,69,0.0,-999.0,70,0.00,,,0.00,Wunderground v.1.15,2013-04-04 04:02:00,
2013-04-04 00:03:00,22.8,14.5,30.37,ENE,69,0.0,-999.0,70,0.00,,,0.00,Wunderground v.1.15,2013-04-04 04:03:00,
2013-04-04 00:09:00,22.5,14.5,30.37,ENE,69,0.0,-999.0,71,0.00,,,0.00,Wunderground v.1.15,2013-04-04 04:09:00,
2013-04-04 00:14:00,22.3,14.6,30.37,ENE,69,0.0,-999.0,72,0.00,,,0.00,Wunderground v.1.15,2013-04-04 04:14:00,
2013-04-04 00:20:00,22.2,14.9,30.37,ENE,69,0.0,-999.0,73,0.00,,,0.00,Wunderground v.1.15,2013-04-04 04:20:00,
2013-04-04 00:25:00,22.1,15.1,30.37,ENE,69,1.0,-999.0,74,0.00,,,0.00,Wunderground v.1.15,2013-04-04 04:25:00,
2013-04-04 00:31:00,21.9,14.9,30.37,ENE,69,1.0,-999.0,74,0.00,,,0.00,Wunderground v.1.15,2013-04-04 04:31:00,
2013-04-04 00:37:00,21.6,14.6,30.37,ENE,69,0.0,-999.0,74,0.00,,,0.00,Wunderground v.1.15,2013-04-04 04:37:00,
2013-04-04 00:42:00,21.5,14.5,30.36,ENE,69,0.0,-999.0,74,0.00,,,0.00,Wunderground v.1.15,2013-04-04 04:42:00,
2013-04-04 00:48:00,21.3,14.3,30.36,ENE,69,0.0,-999.0,74,0.00,,,0.00,Wunderground v.1.15,2013-04-04 04:48:00,
2013-04-04 00:53:00,21.2,14.2,30.36,ENE,69,0.0,-999.0,74,0.00,,,0.00,Wunderground v.1.15,2013-04-04 04:53:00,
2013-04-04 00:59:00,21.1,14.4,30.36,ENE,69,0.0,-999.0,75,0.00,,,0.00,Wunderground v.1.15,2013-04-04 04:59:00,
2013-04-04 01:05:00,20.9,14.2,30.36,ENE,69,0.0,-999.0,75,0.00,,,0.00,Wunderground v.1.15,2013-04-04 05:05:00,
2013-04-04 01:10:00,20.7,14.0,30.36,ENE,69,0.0,-999.0,75,0.00,,,0.00,Wunderground v.1.15,2013-04-04 05:10:00,
2013-04-04 01:16:00,20.5,14.1,30.35,ENE,69,0.0,-999.0,76,0.00,,,0.00,Wunderground v.1.15,2013-04-04 05:16:00,
2013-04-04 01:22:00,20.3,13.9,30.35,ENE,69,0.0,-999.0,76,0.00,,,0.00,Wunderground v.1.15,2013-04-04 05:22:00,
2013-04-04 01:27:00,20.2,14.1,30.35,ENE,69,0.0,-999.0,77,0.00,,,0.00,Wunderground v.1.15,2013-04-04 05:27:00,
2013-04-04 01:33:00,20.0,13.9,30.35,ENE,69,0.0,-999.0,77,0.00,,,0.00,Wunderground v.1.15,2013-04-04 05:33:00,
2013-04-04 01:38:00,19.9,13.9,30.35,ENE,69,0.0,-999.0,77,0.00,,,0.00,Wunderground v.1.15,2013-04-04 05:38:00,
2013-04-04 01:44:00,19.8,14.0,30.35,ENE,69,0.0,-999.0,78,0.00,,,0.00,Wunderground v.1.15,2013-04-04 05:44:00,
2013-04-04 01:50:00,19.8,14.0,30.35,ENE,69,0.0,-999.0,78,0.00,,,0.00,Wunderground v.1.15,2013-04-04 05:50:00,
2013-04-04 01:56:00,19.7,14.0,30.35,ENE,69,0.0,-999.0,78,0.00,,,0.00,Wunderground v.1.15,2013-04-04 05:56:00,
2013-04-04 02:02:00,19.6,13.9,30.35,ENE,69,0.0,-999.0,78,0.00,,,0.00,Wunderground v.1.15,2013-04-04 06:02:00,
2013-04-04 02:08:00,19.5,13.8,30.35,ENE,69,0.0,-999.0,78,0.00,,,0.00,Wunderground v.1.15,2013-04-04 06:08:00,
2013-04-04 02:13:00,19.4,13.9,30.35,ENE,69,0.0,-999.0,79,0.00,,,0.00,Wunderground v.1.15,2013-04-04 06:13:00,
2013-04-04 02:18:00,19.3,13.9,30.35,ENE,69,0.0,-999.0,79,0.00,,,0.00,Wunderground v.1.15,2013-04-04 06:18:00,
2013-04-04 02:24:00,19.0,13.6,30.35,ENE,69,0.0,-999.0,79,0.00,,,0.00,Wunderground v.1.15,2013-04-04 06:24:00,
2013-04-04 02:29:00,18.9,13.5,30.35,ENE,69,0.0,-999.0,79,0.00,,,0.00,Wunderground v.1.15,2013-04-04 06:29:00,
2013-04-04 02:34:00,18.8,13.4,30.35,ENE,69,0.0,-999.0,79,0.00,,,0.00,Wunderground v.1.15,2013-04-04 06:34:00,
2013-04-04 02:39:00,18.6,13.5,30.35,ENE,69,0.0,-999.0,80,0.00,,,0.00,Wunderground v.1.15,2013-04-04 06:39:00,
2013-04-04 02:44:00,18.5,13.4,30.36,ENE,69,0.0,-999.0,80,0.00,,,0.00,Wunderground v.1.15,2013-04-04 06:44:00,
2013-04-04 02:50:00,18.5,13.6,30.36,ENE,69,0.0,-999.0,81,0.00,,,0.00,Wunderground v.1.15,2013-04-04 06:50:00,
2013-04-04 02:55:00,18.5,13.6,30.36,ENE,69,0.0,-999.0,81,0.00,,,0.00,Wunderground v.1.15,2013-04-04 06:55:00,
2013-04-04 03:01:00,18.4,13.5,30.36,ENE,69,0.0,-999.0,81,0.00,,,0.00,Wunderground v.1.15,2013-04-04 07:01:00,
2013-04-04 03:07:00,18.2,13.3,30.36,ENE,69,0.0,-999.0,81,0.00,,,0.00,Wunderground v.1.15,2013-04-04 07:07:00,
2013-04-04 03:12:00,18.1,13.5,30.36,ENE,69,0.0,-999.0,82,0.00,,,0.00,Wunderground v.1.15,2013-04-04 07:12:00,
2013-04-04 03:17:00,18.1,13.5,30.35,ENE,69,0.0,-999.0,82,0.00,,,0.00,Wunderground v.1.15,2013-04-04 07:17:00,
2013-04-04 03:23:00,18.0,13.4,30.35,ENE,69,0.0,-999.0,82,0.00,,,0.00,Wunderground v.1.15,2013-04-04 07:23:00,
2013-04-04 03:28:00,18.0,13.7,30.35,ENE,69,0.0,-999.0,83,0.00,,,0.00,Wunderground v.1.15,2013-04-04 07:28:00,
2013-04-04 03:34:00,18.1,13.8,30.35,ENE,69,0.0,-999.0,83,0.00,,,0.00,Wunderground v.1.15,2013-04-04 07:34:00,
2013-04-04 03:39:00,18.1,13.8,30.34,ENE,69,0.0,-999.0,83,0.00,,,0.00,Wunderground v.1.15,2013-04-04 07:39:00,
2013-04-04 03:44:00,18.2,14.2,30.35,ENE,69,0.0,-999.0,84,0.00,,,0.00,Wunderground v.1.15,2013-04-04 07:44:00,
2013-04-04 03:50:00,18.2,14.2,30.35,ENE,69,0.0,-999.0,84,0.00,,,0.00,Wunderground v.1.15,2013-04-04 07:50:00,
2013-04-04 03:55:00,18.1,14.1,30.35,ENE,69,0.0,-999.0,84,0.00,,,0.00,Wunderground v.1.15,2013-04-04 07:55:00,
2013-04-04 04:00:00,17.9,13.6,30.35,ENE,69,0.0,-999.0,83,0.00,,,0.00,Wunderground v.1.15,2013-04-04 08:00:00,
2013-04-04 04:07:00,17.8,13.8,30.35,ENE,69,0.0,-999.0,84,0.00,,,0.00,Wunderground v.1.15,2013-04-04 08:07:00,
2013-04-04 04:12:00,17.8,13.8,30.35,ENE,69,0.0,-999.0,84,0.00,,,0.00,Wunderground v.1.15,2013-04-04 08:12:00,
2013-04-04 04:17:00,17.7,13.7,30.35,ENE,69,0.0,-999.0,84,0.00,,,0.00,Wunderground v.1.15,2013-04-04 08:17:00,
2013-04-04 04:23:00,17.6,13.6,30.35,ENE,69,0.0,-999.0,84,0.00,,,0.00,Wunderground v.1.15,2013-04-04 08:23:00,
2013-04-04 04:29:00,17.6,13.6,30.34,ENE,69,0.0,-999.0,84,0.00,,,0.00,Wunderground v.1.15,2013-04-04 08:29:00,
2013-04-04 04:34:00,17.6,13.6,30.35,ENE,69,0.0,-999.0,84,0.00,,,0.00,Wunderground v.1.15,2013-04-04 08:34:00,
2013-04-04 04:39:00,17.5,13.5,30.35,ENE,69,0.0,-999.0,84,0.00,,,0.00,Wunderground v.1.15,2013-04-04 08:39:00,
2013-04-04 04:45:00,17.4,13.4,30.35,ENE,69,0.0,-999.0,84,0.00,,,0.00,Wunderground v.1.15,2013-04-04 08:45:00,
2013-04-04 04:52:00,17.2,13.2,30.35,ENE,69,0.0,-999.0,84,0.00,,,0.00,Wunderground v.1.15,2013-04-04 08:52:00,
2013-04-04 04:58:00,17.1,13.1,30.35,ENE,69,0.0,-999.0,84,0.00,,,0.00,Wunderground v.1.15,2013-04-04 08:58:00,
2013-04-04 05:04:00,17.0,13.0,30.34,ENE,69,0.0,-999.0,84,0.00,,,0.00,Wunderground v.1.15,2013-04-04 09:04:00,
2013-04-04 05:09:00,17.0,13.0,30.35,ENE,69,0.0,-999.0,84,0.00,,,0.00,Wunderground v.1.15,2013-04-04 09:09:00,
2013-04-04 05:14:00,16.9,12.9,30.35,ENE,69,0.0,-999.0,84,0.00,,,0.00,Wunderground v.1.15,2013-04-04 09:14:00,
2013-04-04 05:19:00,16.9,13.2,30.34,ENE,69,0.0,-999.0,85,0.00,,,0.00,Wunderground v.1.15,2013-04-04 09:19:00,
2013-04-04 05:24:00,16.8,13.1,30.34,ENE,69,0.0,-999.0,85,0.00,,,0.00,Wunderground v.1.15,2013-04-04 09:24:00,
2013-04-04 05:30:00,16.9,13.2,30.33,ENE,69,0.0,-999.0,85,0.00,,,0.00,Wunderground v.1.15,2013-04-04 09:30:00,
2013-04-04 05:35:00,16.9,13.2,30.33,ENE,69,0.0,-999.0,85,0.00,,,0.00,Wunderground v.1.15,2013-04-04 09:35:00,
2013-04-04 05:40:00,16.9,13.4,30.33,ENE,69,0.0,-999.0,86,0.00,,,0.00,Wunderground v.1.15,2013-04-04 09:40:00,
2013-04-04 05:46:00,16.8,13.3,30.33,ENE,69,0.0,-999.0,86,0.00,,,0.00,Wunderground v.1.15,2013-04-04 09:46:00,
2013-04-04 05:51:00,16.8,13.3,30.33,ENE,69,0.0,-999.0,86,0.00,,,0.00,Wunderground v.1.15,2013-04-04 09:51:00,
2013-04-04 05:56:00,16.8,13.3,30.32,ENE,69,0.0,-999.0,86,0.00,,,0.00,Wunderground v.1.15,2013-04-04 09:56:00,
2013-04-04 06:02:00,16.9,13.4,30.32,ENE,69,0.0,-999.0,86,0.00,,,0.00,Wunderground v.1.15,2013-04-04 10:02:00,
2013-04-04 06:07:00,16.9,13.4,30.31,ENE,69,0.0,-999.0,86,0.00,,,0.00,Wunderground v.1.15,2013-04-04 10:07:00,
2013-04-04 06:13:00,16.8,13.3,30.31,ENE,69,0.0,-999.0,86,0.00,,,0.00,Wunderground v.1.15,2013-04-04 10:13:00,
2013-04-04 06:19:00,16.7,13.2,30.31,ENE,69,0.0,-999.0,86,0.00,,,0.00,Wunderground v.1.15,2013-04-04 10:19:00,
2013-04-04 06:25:00,16.7,13.2,30.30,ENE,69,0.0,-999.0,86,0.00,,,0.00,Wunderground v.1.15,2013-04-04 10:25:00,
2013-04-04 06:31:00,16.7,13.2,30.30,ENE,69,0.0,-999.0,86,0.00,,,0.00,Wunderground v.1.15,2013-04-04 10:31:00,
2013-04-04 06:37:00,17.1,13.9,30.31,ENE,69,0.0,-999.0,87,0.00,,,0.00,Wunderground v.1.15,2013-04-04 10:37:00,
2013-04-04 06:43:00,17.7,14.5,30.31,ENE,69,0.0,-999.0,87,0.00,,,0.00,Wunderground v.1.15,2013-04-04 10:43:00,
2013-04-04 06:48:00,17.7,14.2,30.31,ENE,69,0.0,-999.0,86,0.00,,,0.00,Wunderground v.1.15,2013-04-04 10:48:00,
2013-04-04 06:54:00,17.6,14.1,30.30,ENE,69,0.0,-999.0,86,0.00,,,0.00,Wunderground v.1.15,2013-04-04 10:54:00,
2013-04-04 06:59:00,17.5,14.0,30.30,ENE,69,0.0,-999.0,86,0.00,,,0.00,Wunderground v.1.15,2013-04-04 10:59:00,
2013-04-04 07:05:00,17.3,13.8,30.30,ENE,69,0.0,-999.0,86,0.00,,,0.00,Wunderground v.1.15,2013-04-04 11:05:00,
2013-04-04 07:10:00,17.3,13.8,30.30,ENE,69,0.0,-999.0,86,0.00,,,0.00,Wunderground v.1.15,2013-04-04 11:10:00,
2013-04-04 07:15:00,17.2,13.7,30.29,ENE,69,0.0,-999.0,86,0.00,,,0.00,Wunderground v.1.15,2013-04-04 11:15:00,
2013-04-04 07:21:00,17.0,13.5,30.29,ENE,69,0.0,-999.0,86,0.00,,,0.00,Wunderground v.1.15,2013-04-04 11:21:00,
2013-04-04 07:27:00,17.0,13.5,30.29,ENE,69,0.0,-999.0,86,0.00,,,0.00,Wunderground v.1.15,2013-04-04 11:27:00,
2013-04-04 07:32:00,17.0,13.5,30.29,ENE,69,0.0,-999.0,86,0.00,,,0.00,Wunderground v.1.15,2013-04-04 11:32:00,
2013-04-04 07:38:00,17.1,13.6,30.29,ENE,69,0.0,-999.0,86,0.00,,,0.00,Wunderground v.1.15,2013-04-04 11:38:00,
2013-04-04 07:44:00,17.6,14.4,30.29,ENE,69,0.0,-999.0,87,0.00,,,0.00,Wunderground v.1.15,2013-04-04 11:44:00,
2013-04-04 07:49:00,17.9,14.7,30.29,ENE,69,0.0,-999.0,87,0.00,,,0.00,Wunderground v.1.15,2013-04-04 11:49:00,
2013-04-04 07:55:00,18.2,15.2,30.29,ENE,69,0.0,-999.0,88,0.00,,,0.00,Wunderground v.1.15,2013-04-04 11:55:00,
2013-04-04 08:00:00,18.5,15.5,30.29,ENE,69,0.0,-999.0,88,0.00,,,0.00,Wunderground v.1.15,2013-04-04 12:00:00,
2013-04-04 08:05:00,18.9,15.9,30.29,ENE,69,0.0,-999.0,88,0.00,,,0.00,Wunderground v.1.15,2013-04-04 12:05:00,
2013-04-04 08:10:00,19.3,16.3,30.28,ENE,69,0.0,-999.0,88,0.00,,,0.00,Wunderground v.1.15,2013-04-04 12:10:00,
2013-04-04 08:16:00,19.7,16.7,30.29,ENE,69,0.0,-999.0,88,0.00,,,0.00,Wunderground v.1.15,2013-04-04 12:16:00,
2013-04-04 08:21:00,20.1,17.1,30.28,ENE,69,0.0,-999.0,88,0.00,,,0.00,Wunderground v.1.15,2013-04-04 12:21:00,
2013-04-04 08:27:00,20.7,17.4,30.28,ENE,69,0.0,-999.0,87,0.00,,,0.00,Wunderground v.1.15,2013-04-04 12:27:00,
2013-04-04 08:33:00,21.4,18.1,30.28,ENE,69,0.0,-999.0,87,0.00,,,0.00,Wunderground v.1.15,2013-04-04 12:33:00,
2013-04-04 08:39:00,22.1,18.6,30.28,ENE,69,0.0,-999.0,86,0.00,,,0.00,Wunderground v.1.15,2013-04-04 12:39:00,
2013-04-04 08:45:00,22.9,19.1,30.27,ENE,69,0.0,-999.0,85,0.00,,,0.00,Wunderground v.1.15,2013-04-04 12:45:00,
2013-04-04 08:50:00,23.8,19.4,30.27,ENE,69,0.0,-999.0,83,0.00,,,0.00,Wunderground v.1.15,2013-04-04 12:50:00,
2013-04-04 08:55:00,24.4,19.7,30.27,ENE,69,0.0,-999.0,82,0.00,,,0.00,Wunderground v.1.15,2013-04-04 12:55:00,
2013-04-04 09:01:00,25.0,19.7,30.27,ENE,69,0.0,-999.0,80,0.00,,,0.00,Wunderground v.1.15,2013-04-04 13:01:00,
2013-04-04 09:07:00,25.7,19.8,30.27,ENE,69,0.0,-999.0,78,0.00,,,0.00,Wunderground v.1.15,2013-04-04 13:07:00,
2013-04-04 09:13:00,26.5,19.6,30.27,ENE,69,0.0,-999.0,75,0.00,,,0.00,Wunderground v.1.15,2013-04-04 13:13:00,
2013-04-04 09:20:00,27.6,19.4,30.26,SE,146,1.0,-999.0,71,0.00,,,0.00,Wunderground v.1.15,2013-04-04 13:20:00,
2013-04-04 09:25:00,28.3,19.1,30.26,SE,146,0.0,-999.0,68,0.00,,,0.00,Wunderground v.1.15,2013-04-04 13:25:00,
2013-04-04 09:30:00,28.9,19.0,30.25,SSE,148,1.0,-999.0,66,0.00,,,0.00,Wunderground v.1.15,2013-04-04 13:30:00,
2013-04-04 09:36:00,29.4,19.1,30.25,SSE,165,3.0,-999.0,65,0.00,,,0.00,Wunderground v.1.15,2013-04-04 13:36:00,
2013-04-04 09:42:00,29.9,18.5,30.25,SSE,166,4.0,-999.0,62,0.00,,,0.00,Wunderground v.1.15,2013-04-04 13:42:00,
2013-04-04 09:47:00,30.7,19.2,30.24,SSE,166,2.0,-999.0,62,0.00,,,0.00,Wunderground v.1.15,2013-04-04 13:47:00,
2013-04-04 09:53:00,31.4,19.1,30.24,SSE,160,1.0,-999.0,60,0.00,,,0.00,Wunderground v.1.15,2013-04-04 13:53:00,
2013-04-04 09:59:00,31.9,18.8,30.24,SSE,154,3.0,-999.0,58,0.00,,,0.00,Wunderground v.1.15,2013-04-04 13:59:00,
2013-04-04 10:04:00,32.2,18.2,30.24,South,169,3.0,-999.0,56,0.00,,,0.00,Wunderground v.1.15,2013-04-04 14:04:00,
2013-04-04 10:09:00,32.4,18.4,30.23,South,175,4.0,-999.0,56,0.00,,,0.00,Wunderground v.1.15,2013-04-04 14:09:00,
2013-04-04 10:15:00,32.9,19.3,30.23,South,177,4.0,-999.0,57,0.00,,,0.00,Wunderground v.1.15,2013-04-04 14:15:00,
2013-04-04 10:21:00,33.8,19.7,30.23,South,179,3.0,-999.0,56,0.00,,,0.00,Wunderground v.1.15,2013-04-04 14:21:00,
2013-04-04 10:26:00,34.3,19.4,30.23,South,177,3.0,-999.0,54,0.00,,,0.00,Wunderground v.1.15,2013-04-04 14:26:00,
2013-04-04 10:31:00,34.6,19.2,30.23,South,177,3.0,-999.0,53,0.00,,,0.00,Wunderground v.1.15,2013-04-04 14:31:00,
2013-04-04 10:36:00,34.8,18.5,30.22,SSE,158,3.0,-999.0,51,0.00,,,0.00,Wunderground v.1.15,2013-04-04 14:36:00,
2013-04-04 10:41:00,35.3,19.9,30.22,SSE,158,2.0,-999.0,53,0.00,,,0.00,Wunderground v.1.15,2013-04-04 14:41:00,
2013-04-04 10:47:00,35.9,19.5,30.21,SSE,153,1.0,-999.0,51,0.00,,,0.00,Wunderground v.1.15,2013-04-04 14:47:00,
2013-04-04 10:53:00,36.4,19.5,30.21,SSE,153,1.0,-999.0,50,0.00,,,0.00,Wunderground v.1.15,2013-04-04 14:53:00,
2013-04-04 10:58:00,36.9,18.0,30.21,NE,53,1.0,-999.0,46,0.00,,,0.00,Wunderground v.1.15,2013-04-04 14:58:00,
2013-04-04 11:04:00,37.6,18.2,30.20,SE,130,2.0,-999.0,45,0.00,,,0.00,Wunderground v.1.15,2013-04-04 15:04:00,
2013-04-04 11:09:00,38.3,18.3,30.20,ESE,113,2.0,-999.0,44,0.00,,,0.00,Wunderground v.1.15,2013-04-04 15:09:00,
2013-04-04 11:15:00,38.9,17.2,30.20,SSE,163,2.0,-999.0,41,0.00,,,0.00,Wunderground v.1.15,2013-04-04 15:15:00,
2013-04-04 11:21:00,39.1,17.9,30.20,South,178,3.0,-999.0,42,0.00,,,0.00,Wunderground v.1.15,2013-04-04 15:21:00,
2013-04-04 11:26:00,39.3,17.5,30.20,South,185,3.0,-999.0,41,0.00,,,0.00,Wunderground v.1.15,2013-04-04 15:26:00,
2013-04-04 11:32:00,39.8,18.0,30.19,South,172,3.0,-999.0,41,0.00,,,0.00,Wunderground v.1.15,2013-04-04 15:32:00,
2013-04-04 11:37:00,40.3,17.3,30.19,SSE,163,3.0,-999.0,39,0.00,,,0.00,Wunderground v.1.15,2013-04-04 15:37:00,
2013-04-04 11:42:00,41.0,17.9,30.19,South,178,3.0,-999.0,39,0.00,,,0.00,Wunderground v.1.15,2013-04-04 15:42:00,
2013-04-04 11:47:00,41.5,17.1,30.18,South,169,3.0,-999.0,37,0.00,,,0.00,Wunderground v.1.15,2013-04-04 15:47:00,
2013-04-04 11:53:00,42.1,17.0,30.18,SSE,160,3.0,-999.0,36,0.00,,,0.00,Wunderground v.1.15,2013-04-04 15:53:00,
2013-04-04 11:59:00,42.6,18.1,30.17,SSE,161,4.0,-999.0,37,0.00,,,0.00,Wunderground v.1.15,2013-04-04 15:59:00,
2013-04-04 12:05:00,42.6,18.1,30.17,SSE,160,4.0,-999.0,37,0.00,,,0.00,Wunderground v.1.15,2013-04-04 16:05:00,
2013-04-04 12:10:00,42.8,18.9,30.17,SSW,193,4.0,-999.0,38,0.00,,,0.00,Wunderground v.1.15,2013-04-04 16:10:00,
2013-04-04 12:16:00,42.9,19.6,30.17,SSW,211,4.0,-999.0,39,0.00,,,0.00,Wunderground v.1.15,2013-04-04 16:16:00,
2013-04-04 12:21:00,43.1,18.6,30.16,SSW,213,4.0,-999.0,37,0.00,,,0.00,Wunderground v.1.15,2013-04-04 16:21:00,
2013-04-04 12:26:00,43.4,17.5,30.16,SSW,201,4.0,-999.0,35,0.00,,,0.00,Wunderground v.1.15,2013-04-04 16:26:00,
2013-04-04 12:31:00,43.4,18.2,30.15,SSW,192,3.0,-999.0,36,0.00,,,0.00,Wunderground v.1.15,2013-04-04 16:31:00,
2013-04-04 12:37:00,43.7,18.5,30.15,South,183,2.0,-999.0,36,0.00,,,0.00,Wunderground v.1.15,2013-04-04 16:37:00,
2013-04-04 12:43:00,44.1,18.2,30.14,SSE,163,4.0,-999.0,35,0.00,,,0.00,Wunderground v.1.15,2013-04-04 16:43:00,
2013-04-04 12:49:00,44.4,17.1,30.14,SSE,163,2.0,-999.0,33,0.00,,,0.00,Wunderground v.1.15,2013-04-04 16:49:00,
2013-04-04 12:55:00,44.8,17.4,30.14,SSE,163,2.0,-999.0,33,0.00,,,0.00,Wunderground v.1.15,2013-04-04 16:55:00,
2013-04-04 13:01:00,45.2,18.5,30.13,SSE,163,3.0,-999.0,34,0.00,,,0.00,Wunderground v.1.15,2013-04-04 17:01:00,
2013-04-04 13:07:00,45.7,19.6,30.13,NW,325,2.0,-999.0,35,0.00,,,0.00,Wunderground v.1.15,2013-04-04 17:07:00,
2013-04-04 13:13:00,46.6,17.5,30.13,NW,304,1.0,-999.0,31,0.00,,,0.00,Wunderground v.1.15,2013-04-04 17:13:00,
2013-04-04 13:19:00,47.3,18.1,30.13,SE,145,3.0,-999.0,31,0.00,,,0.00,Wunderground v.1.15,2013-04-04 17:19:00,
2013-04-04 13:25:00,47.4,18.2,30.12,SSE,153,5.0,-999.0,31,0.00,,,0.00,Wunderground v.1.15,2013-04-04 17:25:00,
2013-04-04 13:30:00,47.5,17.6,30.12,South,178,5.0,-999.0,30,0.00,,,0.00,Wunderground v.1.15,2013-04-04 17:30:00,
2013-04-04 13:35:00,47.6,17.6,30.12,SSE,161,5.0,-999.0,30,0.00,,,0.00,Wunderground v.1.15,2013-04-04 17:35:00,
2013-04-04 13:41:00,48.1,16.5,30.12,SE,138,3.0,-999.0,28,0.00,,,0.00,Wunderground v.1.15,2013-04-04 17:41:00,
2013-04-04 13:47:00,48.5,16.8,30.11,SSE,161,3.0,-999.0,28,0.00,,,0.00,Wunderground v.1.15,2013-04-04 17:47:00,
2013-04-04 13:52:00,48.5,16.8,30.10,SSE,161,3.0,-999.0,28,0.00,,,0.00,Wunderground v.1.15,2013-04-04 17:52:00,
2013-04-04 13:58:00,49.2,16.6,30.10,East,95,3.0,-999.0,27,0.00,,,0.00,Wunderground v.1.15,2013-04-04 17:58:00,
2013-04-04 14:03:00,49.4,15.0,30.10,South,179,5.0,-999.0,25,0.00,,,0.00,Wunderground v.1.15,2013-04-04 18:03:00,
2013-04-04 14:09:00,49.8,16.2,30.09,SSW,194,4.0,-999.0,26,0.00,,,0.00,Wunderground v.1.15,2013-04-04 18:09:00,
2013-04-04 14:14:00,50.7,17.0,30.09,ESE,122,3.0,-999.0,26,0.00,,,0.00,Wunderground v.1.15,2013-04-04 18:14:00,
2013-04-04 14:20:00,51.1,17.4,30.08,SW,219,4.0,-999.0,26,0.00,,,0.00,Wunderground v.1.15,2013-04-04 18:20:00,
2013-04-04 14:25:00,51.6,15.9,30.08,SSE,165,5.0,-999.0,24,0.00,,,0.00,Wunderground v.1.15,2013-04-04 18:25:00,
2013-04-04 14:30:00,51.4,18.5,30.08,SE,133,4.0,-999.0,27,0.00,,,0.00,Wunderground v.1.15,2013-04-04 18:30:00,
2013-04-04 14:35:00,51.7,16.0,30.07,SSE,165,2.0,-999.0,24,0.00,,,0.00,Wunderground v.1.15,2013-04-04 18:35:00,
2013-04-04 14:41:00,52.4,14.6,30.07,East,81,2.0,-999.0,22,0.00,,,0.00,Wunderground v.1.15,2013-04-04 18:41:00,
2013-04-04 14:46:00,52.5,16.7,30.07,South,185,2.0,-999.0,24,0.00,,,0.00,Wunderground v.1.15,2013-04-04 18:46:00,
2013-04-04 14:52:00,52.5,14.7,30.06,SSE,153,4.0,-999.0,22,0.00,,,0.00,Wunderground v.1.15,2013-04-04 18:52:00,
2013-04-04 14:58:00,52.6,17.7,30.06,South,185,5.0,-999.0,25,0.00,,,0.00,Wunderground v.1.15,2013-04-04 18:58:00,
2013-04-04 15:04:00,52.2,14.4,30.06,SSE,165,5.0,-999.0,22,0.00,,,0.00,Wunderground v.1.15,2013-04-04 19:04:00,
2013-04-04 15:09:00,52.4,16.6,30.06,SSE,150,5.0,-999.0,24,0.00,,,0.00,Wunderground v.1.15,2013-04-04 19:09:00,
2013-04-04 15:15:00,52.1,16.4,30.05,SSW,193,5.0,-999.0,24,0.00,,,0.00,Wunderground v.1.15,2013-04-04 19:15:00,
2013-04-04 15:20:00,52.4,17.6,30.05,South,184,3.0,-999.0,25,0.00,,,0.00,Wunderground v.1.15,2013-04-04 19:20:00,
2013-04-04 15:25:00,52.8,17.9,30.04,SSW,194,4.0,-999.0,25,0.00,,,0.00,Wunderground v.1.15,2013-04-04 19:25:00,
2013-04-04 15:30:00,52.7,14.9,30.04,SSW,205,5.0,-999.0,22,0.00,,,0.00,Wunderground v.1.15,2013-04-04 19:30:00,
2013-04-04 15:36:00,52.8,13.9,30.04,South,172,4.0,-999.0,21,0.00,,,0.00,Wunderground v.1.15,2013-04-04 19:36:00,
2013-04-04 15:42:00,52.9,16.1,30.03,SSW,199,2.0,-999.0,23,0.00,,,0.00,Wunderground v.1.15,2013-04-04 19:42:00,
2013-04-04 15:47:00,53.1,15.2,30.03,SE,144,1.0,-999.0,22,0.00,,,0.00,Wunderground v.1.15,2013-04-04 19:47:00,
2013-04-04 15:52:00,53.2,15.3,30.02,SSE,166,2.0,-999.0,22,0.00,,,0.00,Wunderground v.1.15,2013-04-04 19:52:00,
2013-04-04 15:57:00,53.5,13.4,30.02,South,176,3.0,-999.0,20,0.00,,,0.00,Wunderground v.1.15,2013-04-04 19:57:00,
2013-04-04 16:03:00,53.7,13.5,30.02,South,187,4.0,-999.0,20,0.00,,,0.00,Wunderground v.1.15,2013-04-04 20:03:00,
2013-04-04 16:09:00,53.9,13.7,30.02,SSW,205,4.0,-999.0,20,0.00,,,0.00,Wunderground v.1.15,2013-04-04 20:09:00,
2013-04-04 16:14:00,53.9,13.7,30.02,South,187,4.0,-999.0,20,0.00,,,0.00,Wunderground v.1.15,2013-04-04 20:14:00,
2013-04-04 16:20:00,53.7,11.1,30.02,South,175,4.0,-999.0,18,0.00,,,0.00,Wunderground v.1.15,2013-04-04 20:20:00,
2013-04-04 16:26:00,53.4,13.3,30.01,SSE,163,3.0,-999.0,20,0.00,,,0.00,Wunderground v.1.15,2013-04-04 20:26:00,
2013-04-04 16:32:00,53.5,13.4,30.01,South,175,5.0,-999.0,20,0.00,,,0.00,Wunderground v.1.15,2013-04-04 20:32:00,
2013-04-04 16:37:00,53.3,12.0,30.00,South,171,7.0,-999.0,19,0.00,,,0.00,Wunderground v.1.15,2013-04-04 20:37:00,
2013-04-04 16:44:00,53.6,14.5,30.00,South,171,4.0,-999.0,21,0.00,,,0.00,Wunderground v.1.15,2013-04-04 20:44:00,
2013-04-04 16:50:00,53.8,12.4,30.00,SE,146,5.0,-999.0,19,0.00,,,0.00,Wunderground v.1.15,2013-04-04 20:50:00,
2013-04-04 16:56:00,53.9,13.7,29.99,SSE,163,6.0,-999.0,20,0.00,,,0.00,Wunderground v.1.15,2013-04-04 20:56:00,
2013-04-04 17:02:00,53.9,13.7,29.99,SW,233,5.0,-999.0,20,0.00,,,0.00,Wunderground v.1.15,2013-04-04 21:02:00,
2013-04-04 17:07:00,54.2,13.9,29.99,SSE,159,5.0,-999.0,20,0.00,,,0.00,Wunderground v.1.15,2013-04-04 21:07:00,
2013-04-04 17:13:00,54.2,11.5,29.98,South,170,5.0,-999.0,18,0.00,,,0.00,Wunderground v.1.15,2013-04-04 21:13:00,
2013-04-04 17:18:00,53.9,13.7,29.99,SSE,167,5.0,-999.0,20,0.00,,,0.00,Wunderground v.1.15,2013-04-04 21:18:00,
2013-04-04 17:24:00,53.6,14.5,29.98,SSE,163,5.0,-999.0,21,0.00,,,0.00,Wunderground v.1.15,2013-04-04 21:24:00,
2013-04-04 17:29:00,53.9,13.7,29.98,SSE,158,4.0,-999.0,20,0.00,,,0.00,Wunderground v.1.15,2013-04-04 21:29:00,
2013-04-04 17:34:00,54.4,15.2,29.98,SW,216,4.0,-999.0,21,0.00,,,0.00,Wunderground v.1.15,2013-04-04 21:34:00,
2013-04-04 17:39:00,54.2,15.1,29.99,SW,229,6.0,-999.0,21,0.00,,,0.00,Wunderground v.1.15,2013-04-04 21:39:00,
2013-04-04 17:44:00,53.9,14.8,29.98,SSW,211,6.0,-999.0,21,0.00,,,0.00,Wunderground v.1.15,2013-04-04 21:44:00,
2013-04-04 17:49:00,53.8,15.8,29.99,SSW,192,6.0,-999.0,22,0.00,,,0.00,Wunderground v.1.15,2013-04-04 21:49:00,
2013-04-04 17:54:00,53.7,17.7,29.99,South,184,5.0,-999.0,24,0.00,,,0.00,Wunderground v.1.15,2013-04-04 21:54:00,
2013-04-04 18:00:00,53.4,18.4,29.99,South,178,5.0,-999.0,25,0.00,,,0.00,Wunderground v.1.15,2013-04-04 22:00:00,
2013-04-04 18:06:00,53.2,16.3,29.99,SW,217,4.0,-999.0,23,0.00,,,0.00,Wunderground v.1.15,2013-04-04 22:06:00,
2013-04-04 18:12:00,52.9,17.0,29.99,SSW,194,5.0,-999.0,24,0.00,,,0.00,Wunderground v.1.15,2013-04-04 22:12:00,
2013-04-04 18:18:00,52.7,16.9,29.99,South,178,5.0,-999.0,24,0.00,,,0.00,Wunderground v.1.15,2013-04-04 22:18:00,
2013-04-04 18:23:00,52.7,15.9,29.99,SW,223,4.0,-999.0,23,0.00,,,0.00,Wunderground v.1.15,2013-04-04 22:23:00,
2013-04-04 18:29:00,52.7,17.8,29.99,SW,232,4.0,-999.0,25,0.00,,,0.00,Wunderground v.1.15,2013-04-04 22:29:00,
2013-04-04 18:35:00,52.7,16.9,29.99,SSW,207,5.0,-999.0,24,0.00,,,0.00,Wunderground v.1.15,2013-04-04 22:35:00,
2013-04-04 18:41:00,52.7,17.8,29.99,North,360,6.0,-999.0,25,0.00,,,0.00,Wunderground v.1.15,2013-04-04 22:41:00,
2013-04-04 18:47:00,52.6,16.8,29.99,SW,215,5.0,-999.0,24,0.00,,,0.00,Wunderground v.1.15,2013-04-04 22:47:00,
2013-04-04 18:52:00,52.4,17.6,29.98,SW,215,5.0,-999.0,25,0.00,,,0.00,Wunderground v.1.15,2013-04-04 22:52:00,
2013-04-04 18:57:00,52.1,18.2,29.98,SW,216,4.0,-999.0,26,0.00,,,0.00,Wunderground v.1.15,2013-04-04 22:57:00,
2013-04-04 19:02:00,51.8,19.7,29.98,WSW,240,3.0,-999.0,28,0.00,,,0.00,Wunderground v.1.15,2013-04-04 23:02:00,
2013-04-04 19:08:00,51.5,18.6,29.98,WSW,240,2.0,-999.0,27,0.00,,,0.00,Wunderground v.1.15,2013-04-04 23:08:00,
2013-04-04 19:13:00,51.2,18.3,29.98,WSW,240,2.0,-999.0,27,0.00,,,0.00,Wunderground v.1.15,2013-04-04 23:13:00,
2013-04-04 19:19:00,51.1,18.2,29.98,SSW,212,3.0,-999.0,27,0.00,,,0.00,Wunderground v.1.15,2013-04-04 23:19:00,
2013-04-04 19:25:00,50.8,18.8,29.98,SSW,212,2.0,-999.0,28,0.00,,,0.00,Wunderground v.1.15,2013-04-04 23:25:00,
2013-04-04 19:31:00,50.4,19.3,29.98,SSW,211,2.0,-999.0,29,0.00,,,0.00,Wunderground v.1.15,2013-04-04 23:31:00,
2013-04-04 19:36:00,50.1,19.0,29.98,SSW,211,2.0,-999.0,29,0.00,,,0.00,Wunderground v.1.15,2013-04-04 23:36:00,
2013-04-04 19:42:00,49.7,19.5,29.97,SSW,211,1.0,-999.0,30,0.00,,,0.00,Wunderground v.1.15,2013-04-04 23:42:00,
2013-04-04 19:47:00,49.5,19.3,29.97,SSW,211,1.0,-999.0,30,0.00,,,0.00,Wunderground v.1.15,2013-04-04 23:47:00,
2013-04-04 19:52:00,49.3,19.1,29.97,SSW,211,0.0,-999.0,30,0.00,,,0.00,Wunderground v.1.15,2013-04-04 23:52:00,
2013-04-04 19:58:00,48.8,20.9,29.97,SSW,211,0.0,-999.0,33,0.00,,,0.00,Wunderground v.1.15,2013-04-04 23:58:00,
2013-04-04 20:04:00,48.0,20.9,29.97,SSW,211,0.0,-999.0,34,0.00,,,0.00,Wunderground v.1.15,2013-04-05 00:04:00,
2013-04-04 20:09:00,47.3,21.0,29.97,SSW,211,0.0,-999.0,35,0.00,,,0.00,Wunderground v.1.15,2013-04-05 00:09:00,
2013-04-04 20:15:00,46.9,21.3,29.97,SSW,211,0.0,-999.0,36,0.00,,,0.00,Wunderground v.1.15,2013-04-05 00:15:00,
2013-04-04 20:20:00,46.2,21.3,29.97,SSW,211,0.0,-999.0,37,0.00,,,0.00,Wunderground v.1.15,2013-04-05 00:20:00,
2013-04-04 20:25:00,45.5,21.3,29.97,SSW,211,0.0,-999.0,38,0.00,,,0.00,Wunderground v.1.15,2013-04-05 00:25:00,
2013-04-04 20:30:00,44.8,20.7,29.97,SSW,211,0.0,-999.0,38,0.00,,,0.00,Wunderground v.1.15,2013-04-05 00:30:00,
2013-04-04 20:35:00,44.1,21.3,29.97,SSW,211,0.0,-999.0,40,0.00,,,0.00,Wunderground v.1.15,2013-04-05 00:35:00,
2013-04-04 20:40:00,43.4,21.2,29.97,SSW,211,0.0,-999.0,41,0.00,,,0.00,Wunderground v.1.15,2013-04-05 00:40:00,
2013-04-04 20:46:00,42.8,21.3,29.97,SSW,211,0.0,-999.0,42,0.00,,,0.00,Wunderground v.1.15,2013-04-05 00:46:00,
2013-04-04 20:52:00,42.2,21.3,29.97,SSW,211,0.0,-999.0,43,0.00,,,0.00,Wunderground v.1.15,2013-04-05 00:52:00,
2013-04-04 20:59:00,41.7,21.4,29.97,SSW,211,0.0,-999.0,44,0.00,,,0.00,Wunderground v.1.15,2013-04-05 00:59:00,
2013-04-04 21:04:00,41.2,21.4,29.97,SSW,211,0.0,-999.0,45,0.00,,,0.00,Wunderground v.1.15,2013-04-05 01:04:00,
2013-04-04 21:09:00,40.6,21.4,29.97,SSW,211,0.0,-999.0,46,0.00,,,0.00,Wunderground v.1.15,2013-04-05 01:09:00,
2013-04-04 21:15:00,40.1,22.0,29.97,SSW,211,0.0,-999.0,48,0.00,,,0.00,Wunderground v.1.15,2013-04-05 01:15:00,
2013-04-04 21:21:00,39.7,22.1,29.97,SSW,211,0.0,-999.0,49,0.00,,,0.00,Wunderground v.1.15,2013-04-05 01:21:00,
2013-04-04 21:26:00,39.3,22.2,29.97,SSW,211,0.0,-999.0,50,0.00,,,0.00,Wunderground v.1.15,2013-04-05 01:26:00,
2013-04-04 21:32:00,38.8,22.7,29.97,SSW,211,0.0,-999.0,52,0.00,,,0.00,Wunderground v.1.15,2013-04-05 01:32:00,
2013-04-04 21:39:00,38.2,23.4,29.97,SSW,211,0.0,-999.0,55,0.00,,,0.00,Wunderground v.1.15,2013-04-05 01:39:00,
2013-04-04 21:44:00,37.8,23.5,29.98,SSW,211,0.0,-999.0,56,0.00,,,0.00,Wunderground v.1.15,2013-04-05 01:44:00,
2013-04-04 21:49:00,37.4,23.5,29.98,SSW,211,0.0,-999.0,57,0.00,,,0.00,Wunderground v.1.15,2013-04-05 01:49:00,
2013-04-04 21:55:00,37.1,23.3,29.98,SSW,211,0.0,-999.0,57,0.00,,,0.00,Wunderground v.1.15,2013-04-05 01:55:00,
2013-04-04 22:00:00,36.8,23.4,29.97,SSW,211,0.0,-999.0,58,0.00,,,0.00,Wunderground v.1.15,2013-04-05 02:00:00,
2013-04-04 22:07:00,36.5,23.5,29.97,SSW,211,0.0,-999.0,59,0.00,,,0.00,Wunderground v.1.15,2013-04-05 02:07:00,
2013-04-04 22:13:00,36.2,23.6,29.97,SSW,211,0.0,-999.0,60,0.00,,,0.00,Wunderground v.1.15,2013-04-05 02:13:00,
2013-04-04 22:18:00,36.0,23.4,29.97,SSW,211,0.0,-999.0,60,0.00,,,0.00,Wunderground v.1.15,2013-04-05 02:18:00,
2013-04-04 22:24:00,35.8,23.3,29.97,SSW,211,0.0,-999.0,60,0.00,,,0.00,Wunderground v.1.15,2013-04-05 02:24:00,
2013-04-04 22:29:00,35.6,23.1,29.97,SSW,211,0.0,-999.0,60,0.00,,,0.00,Wunderground v.1.15,2013-04-05 02:29:00,
2013-04-04 22:34:00,35.4,23.3,29.97,SSW,211,0.0,-999.0,61,0.00,,,0.00,Wunderground v.1.15,2013-04-05 02:34:00,
2013-04-04 22:39:00,35.1,22.6,29.96,SSW,211,0.0,-999.0,60,0.00,,,0.00,Wunderground v.1.15,2013-04-05 02:39:00,
2013-04-04 22:45:00,34.8,22.7,29.96,SSW,211,0.0,-999.0,61,0.00,,,0.00,Wunderground v.1.15,2013-04-05 02:45:00,
2013-04-04 22:50:00,34.5,22.4,29.96,SSW,211,0.0,-999.0,61,0.00,,,0.00,Wunderground v.1.15,2013-04-05 02:50:00,
2013-04-04 22:56:00,34.2,22.1,29.96,SSW,211,0.0,-999.0,61,0.00,,,0.00,Wunderground v.1.15,2013-04-05 02:56:00,
2013-04-04 23:01:00,34.0,22.3,29.95,SSW,211,0.0,-999.0,62,0.00,,,0.00,Wunderground v.1.15,2013-04-05 03:01:00,
2013-04-04 23:07:00,33.8,22.5,29.95,SSW,211,0.0,-999.0,63,0.00,,,0.00,Wunderground v.1.15,2013-04-05 03:07:00,
2013-04-04 23:13:00,33.7,22.8,29.95,SSW,211,0.0,-999.0,64,0.00,,,0.00,Wunderground v.1.15,2013-04-05 03:13:00,
2013-04-04 23:18:00,33.5,23.0,29.94,SSW,211,0.0,-999.0,65,0.00,,,0.00,Wunderground v.1.15,2013-04-05 03:18:00,
2013-04-04 23:23:00,33.3,23.2,29.94,SSW,211,0.0,-999.0,66,0.00,,,0.00,Wunderground v.1.15,2013-04-05 03:23:00,
2013-04-04 23:28:00,33.1,23.0,29.94,SSW,211,0.0,-999.0,66,0.00,,,0.00,Wunderground v.1.15,2013-04-05 03:28:00,
2013-04-04 23:33:00,32.9,23.1,29.95,SSW,211,0.0,-999.0,67,0.00,,,0.00,Wunderground v.1.15,2013-04-05 03:33:00,
2013-04-04 23:39:00,32.7,23.3,29.94,SSW,211,0.0,-999.0,68,0.00,,,0.00,Wunderground v.1.15,2013-04-05 03:39:00,
2013-04-04 23:44:00,32.5,23.5,29.94,SSW,211,0.0,-999.0,69,0.00,,,0.00,Wunderground v.1.15,2013-04-05 03:44:00,
2013-04-04 23:49:00,32.3,23.6,29.94,SSW,211,0.0,-999.0,70,0.00,,,0.00,Wunderground v.1.15,2013-04-05 03:49:00,
2013-04-04 23:54:00,32.1,23.4,29.94,SSW,211,0.0,-999.0,70,0.00,,,0.00,Wunderground v.1.15,2013-04-05 03:54:00,
2013-04-04 23:59:00,31.9,23.2,29.94,SSW,211,0.0,-999.0,70,0.00,,,0.00,Wunderground v.1.15,2013-04-05 03:59:00,